[[{"header":{"parameterUnit":"m.s-1","parameterCategory":1,"la1":30.2991,"la2":30.254,"lo1":-89.0895,"lo2":-89.0444,"dy":0.0017,"dx":0.0017,"nx":28,"ny":28,"refTime":"2025-07-17T03:00:00:Z","depth":0,"parameterNumber":2,"parameterNumberName":"U-component_of_WINDS"},"data":[0,0,0,0,0,0,0,0,0,0,0,0,0,0,0,0,0,0,0,0,0,0,0,0,0,0,0,0,0,0,0,0,0,0,0,0,0,0,0,0,0,0,0,0,0,0,0,0,0,0,0,0,0,0,0,0,0,0,-5.8654,-5.8655,0,-5.8813,-5.8815,-5.8817,-5.8894,-5.8894,-5.8894,-5.8894,-5.9045,-5.9048,-5.9052,0,0,0,0,0,0,0,0,0,0,0,0,0,-5.8401,-5.8405,-5.8653,-5.8655,-5.8657,-5.8813,-5.8815,-5.8817,-5.8894,-5.8894,-5.8894,-5.8894,-5.9043,-5.9048,-5.9053,0,0,0,0,0,0,0,0,0,0,0,0,0,-5.853,-5.8407,-5.8653,-5.8715,-5.8722,-5.8813,-5.8815,-5.8818,-5.8894,-5.8894,-5.8894,-5.8894,-5.9042,-5.9047,-5.9053,-5.9091,0,0,-5.9072,-5.9074,0,0,0,0,0,0,0,0,-5.8523,-5.8539,-5.8704,-5.8711,-5.8719,-5.8834,-5.8782,-5.8909,-5.8894,-5.8828,-5.8894,-5.8894,-5.8974,-5.8985,-5.9015,-5.9098,-5.9104,-5.9072,-5.9076,-5.9079,-5.908,0,0,0,0,0,0,0,-5.8514,-5.8533,-5.8716,-5.8706,-5.8715,-5.873,-5.8748,-5.8806,-5.8898,-5.8834,-5.884,-5.8859,-5.8978,-5.9009,-5.9019,-5.9107,-5.9072,-5.9078,-5.9081,-5.9084,-5.9227,-5.9228,0,0,0,0,0,0,-5.8497,-5.8525,-5.8711,-5.8721,-5.8619,-5.8734,-5.8755,-5.8797,-5.8898,-5.8914,-5.8858,-5.8862,-5.8999,-5.9012,-5.9024,-5.9076,-5.9079,-5.9084,-5.9088,-5.9227,-5.9227,-5.9228,0,0,0,0,0,0,-5.8491,-5.8513,-5.8705,-5.8625,-5.8651,-5.8739,-5.8785,-5.88,-5.8832,-5.8917,-5.8932,-5.8874,-5.8999,-5.9016,-5.9075,-5.9082,-5.9087,-5.9092,-5.9227,-5.9227,-5.9228,-5.9177,0,0,0,0,0,0,-5.8483,-5.851,-5.8529,-5.8625,-5.8655,-5.8756,-5.8786,-5.8803,-5.8843,-5.8849,-5.8936,-5.895,-5.9,-5.9065,-5.9081,-5.909,-5.9097,-5.9227,-5.9227,-5.9227,-5.9179,-5.9176,-5.9173,0,0,0,0,0,-5.8474,-5.8505,-5.8529,-5.8551,-5.868,-5.8757,-5.8773,-5.8834,-5.8844,-5.8861,-5.8915,-5.8947,-5.9078,-5.9071,-5.9089,-5.91,-5.9227,-5.9227,-5.9227,-5.918,-5.9176,-5.9173,0,0,0,0,0,0,-5.8403,-5.8519,-5.8547,-5.8611,-5.8674,-5.8769,-5.8793,-5.8828,-5.8886,-5.8889,-5.8957,-5.8976,-5.9028,-5.907,-5.9059,-5.9141,-5.9155,-5.9159,-5.9113,-5.911,-5.9108,-5.9097,-5.9102,0,0,0,0,0,-5.8395,-5.8452,-5.8549,-5.8595,-5.8626,-5.8704,-5.8739,-5.8781,-5.8847,-5.8873,-5.8932,-5.8991,-5.9046,-5.908,-5.9135,-5.9184,-5.9204,-5.9201,-5.9198,-5.9195,-5.9198,-5.9227,-5.9227,-5.9229,-5.9229,-5.9229,0,0,-5.8379,-5.8449,-5.848,-5.8583,-5.8637,-5.869,-5.8726,-5.878,-5.882,-5.888,-5.8941,-5.8985,-5.9055,-5.911,-5.9137,-5.9146,-5.9202,-5.9196,-5.9193,-5.9198,-5.9227,-5.9227,-5.9227,-5.9229,-5.9229,-5.9229,0,0,-5.8377,-5.8437,-5.8483,-5.8537,-5.8619,-5.8671,-5.8681,-5.8772,-5.8806,-5.8868,-5.8915,-5.8959,-5.9052,-5.9101,-5.9137,-5.9152,-5.9183,-5.9167,-5.9154,-5.9181,-5.9181,-5.9181,-5.9186,-5.9187,-5.917,-5.917,-5.9169,0,-5.8345,-5.8432,-5.85,-5.8554,-5.8597,-5.8658,-5.8703,-5.875,-5.8843,-5.8869,-5.8879,-5.8998,-5.9049,-5.9115,-5.9119,-5.9147,-5.9159,-5.9158,-5.9176,-5.9177,-5.9178,-5.9183,-5.9185,-5.9167,-5.9167,-5.9168,-5.9168,0,-5.8389,-5.8448,-5.8474,-5.8569,-5.8614,-5.8662,-5.8734,-5.8771,-5.8807,-5.8857,-5.8918,-5.8982,-5.9051,-5.9069,-5.9104,-5.914,-5.9144,-5.9163,-5.9179,-5.9174,-5.9181,-5.9183,-5.9164,-5.9165,-5.9165,-5.9166,0,0,-5.8347,-5.848,-5.8488,-5.8532,-5.8627,-5.8671,-5.872,-5.8793,-5.8822,-5.8883,-5.8925,-5.9002,-5.9022,-5.9063,-5.9103,-5.9127,-5.9135,-5.9144,-5.9147,-5.914,-5.9178,-5.9163,-5.9164,-5.9156,-5.9156,-5.9157,-5.9172,0,-5.8359,-5.8457,-5.8519,-5.8589,-5.8643,-5.8701,-5.8744,-5.8804,-5.8851,-5.89,-5.8949,-5.9003,-5.9025,-5.905,-5.9076,-5.9128,-5.9143,-5.9128,-5.9192,-5.9194,-5.9174,-5.9168,-5.9152,-5.9164,-5.9175,-5.9175,-5.9176,0,-5.8386,-5.8452,-5.8529,-5.8618,-5.8643,-5.8681,-5.8751,-5.8799,-5.8866,-5.8898,-5.8945,-5.8986,-5.9037,-5.9048,-5.9117,-5.9105,-5.9134,-5.9163,-5.9165,-5.9174,-5.9185,-5.9176,-5.9169,-5.917,-5.918,-5.918,-5.918,0,-5.8349,-5.8455,-5.8515,-5.855,-5.8656,-5.8681,-5.8725,-5.8794,-5.8832,-5.8892,-5.8917,-5.898,-5.9014,-5.906,-5.9116,-5.9119,-5.9179,-5.9194,-5.9204,-5.9203,-5.9215,-5.9214,-5.9212,-5.9233,-5.9233,-5.9233,-5.9233,0,-5.8356,-5.84,-5.85,-5.8537,-5.8588,-5.8657,-5.8704,-5.8752,-5.8812,-5.8856,-5.8908,-5.8947,-5.9019,-5.9066,-5.9109,-5.9159,-5.9173,-5.9199,-5.921,-5.9195,-5.9192,-5.9215,-5.9216,-5.9233,-5.9233,-5.9233,-5.9233,0,-5.8323,-5.8392,-5.8462,-5.8556,-5.8581,-5.8614,-5.8693,-5.8729,-5.8778,-5.8833,-5.885,-5.8926,-5.8984,-5.9044,-5.9121,-5.915,-5.9199,-5.9214,-5.9178,-5.9184,-5.9191,-5.919,-5.9205,-5.921,-5.9226,-5.9226,-5.9226,0,-5.8323,-5.836,-5.846,-5.8496,-5.854,-5.8596,-5.8637,-5.8705,-5.8744,-5.8825,-5.885,-5.8913,-5.8967,-5.9056,-5.9115,-5.9174,-5.9191,-5.9193,-5.92,-5.9184,-5.9191,-5.9189,-5.9193,-5.919,-5.9189,-5.9189,-5.9189,0,-5.8317,-5.8349,-5.8409,-5.8481,-5.853,-5.8588,-5.8647,-5.8672,-5.875,-5.8792,-5.8854,-5.8896,-5.8977,-5.9038,-5.9104,-5.9145,-5.9179,-5.9186,-5.9192,-5.9177,-5.9155,-5.9167,-5.9171,-5.9185,-5.9186,-5.9186,-5.9186,-5.9186,-5.8301,-5.8336,-5.8413,-5.8477,-5.853,-5.8585,-5.8624,-5.8679,-5.8734,-5.8808,-5.8843,-5.8905,-5.897,-5.9063,-5.9103,-5.915,-5.9159,-5.9167,-5.9169,-5.917,-5.9167,-5.9147,-5.9162,-5.9162,-5.9162,-5.9162,-5.9162,0,-5.8297,-5.835,-5.8409,-5.8493,-5.8542,-5.8574,-5.8642,-5.868,-5.8736,-5.8795,-5.8849,-5.8919,-5.8978,-5.9043,-5.9105,-5.9129,-5.9146,-5.9143,-5.9142,-5.9151,-5.9154,-5.9144,-5.9129,-5.9129,-5.9129,-5.9129,-5.9129,-5.9129,-5.8302,-5.8364,-5.8405,-5.8491,-5.8542,-5.8607,-5.8643,-5.8692,-5.8741,-5.8819,-5.887,-5.8913,-5.8974,-5.9041,-5.9095,-5.9112,-5.9132,-5.9125,-5.9146,-5.9148,-5.9151,-5.9153,-5.9144,-5.9129,-5.9129,-5.9139,-5.9139,-5.9139]},{"header":{"parameterUnit":"m.s-1","parameterCategory":1,"la1":30.2991,"la2":30.254,"lo1":-89.0895,"lo2":-89.0444,"dy":0.0017,"dx":0.0017,"nx":28,"ny":28,"refTime":"2025-07-17T03:00:00:Z","depth":0,"parameterNumber":3,"parameterNumberName":"V-component_of_WINDS"},"data":[0,0,0,0,0,0,0,0,0,0,0,0,0,0,0,0,0,0,0,0,0,0,0,0,0,0,0,0,0,0,0,0,0,0,0,0,0,0,0,0,0,0,0,0,0,0,0,0,0,0,0,0,0,0,0,0,0,0,2.3876,2.3879,0,2.4183,2.4187,2.419,2.4322,2.4321,2.4321,2.432,2.4633,2.4641,2.465,0,0,0,0,0,0,0,0,0,0,0,0,0,2.3401,2.3409,2.3875,2.3879,2.3883,2.4183,2.4187,2.4191,2.4322,2.4321,2.4321,2.432,2.463,2.464,2.4651,0,0,0,0,0,0,0,0,0,0,0,0,0,2.3648,2.3412,2.3875,2.3985,2.3998,2.4182,2.4187,2.4192,2.4322,2.4321,2.432,2.432,2.4626,2.4639,2.4652,2.4749,0,0,2.4693,2.4698,0,0,0,0,0,0,0,0,2.3633,2.3665,2.3965,2.3977,2.3992,2.4213,2.4135,2.4379,2.4322,2.4199,2.432,2.4319,2.4494,2.4518,2.4577,2.4764,2.4778,2.4694,2.4702,2.4707,2.4711,0,0,0,0,0,0,0,2.3616,2.3652,2.3997,2.3969,2.3986,2.4019,2.4053,2.4181,2.4347,2.4209,2.422,2.4254,2.4501,2.4564,2.4585,2.4782,2.4693,2.4705,2.4713,2.4718,2.5068,2.507,0,0,0,0,0,0,2.3581,2.3637,2.3987,2.4006,2.3807,2.4028,2.4066,2.4143,2.4346,2.4376,2.4255,2.4259,2.4542,2.457,2.4597,2.4727,2.4707,2.472,2.4727,2.5067,2.5069,2.507,0,0,0,0,0,0,2.3571,2.3611,2.3975,2.3825,2.3874,2.4037,2.4122,2.415,2.4213,2.438,2.441,2.4289,2.4542,2.4578,2.4712,2.4739,2.4726,2.4738,2.5065,2.5068,2.5069,2.4985,0,0,0,0,0,0,2.3556,2.3607,2.3645,2.3825,2.3881,2.4084,2.4124,2.4156,2.4236,2.4244,2.442,2.4448,2.4544,2.4691,2.4725,2.4757,2.4748,2.5064,2.5066,2.5069,2.4986,2.4983,2.4982,0,0,0,0,0,2.3539,2.3607,2.3646,2.3688,2.3933,2.4085,2.4118,2.4228,2.4237,2.4277,2.4386,2.4443,2.4731,2.4704,2.4743,2.4779,2.5062,2.5066,2.5069,2.4987,2.4984,2.4982,0,0,0,0,0,0,2.3425,2.3633,2.3678,2.3807,2.3928,2.4107,2.4161,2.4221,2.4341,2.4344,2.4475,2.4513,2.4636,2.4721,2.4687,2.4886,2.4902,2.4912,2.4826,2.4825,2.4823,2.48,2.4759,0,0,0,0,0,2.3415,2.3522,2.3698,2.3794,2.3853,2.3996,2.4067,2.4142,2.4272,2.4323,2.4441,2.4564,2.4684,2.4759,2.4877,2.4999,2.504,2.5044,2.5041,2.5039,2.5047,2.5121,2.5125,2.508,2.508,2.508,0,0,2.3394,2.3522,2.3581,2.3775,2.3877,2.3986,2.4038,2.415,2.4232,2.434,2.4474,2.4565,2.4712,2.484,2.4903,2.4915,2.5069,2.5043,2.504,2.505,2.5124,2.5128,2.5132,2.5082,2.5082,2.5082,0,0,2.3413,2.352,2.3614,2.3716,2.3871,2.3967,2.3989,2.4161,2.4226,2.4363,2.4447,2.4547,2.4748,2.485,2.4928,2.499,2.5048,2.5025,2.5014,2.5084,2.5088,2.5091,2.5115,2.5122,2.5032,2.5032,2.5032,0,2.3368,2.3536,2.3653,2.3762,2.3846,2.3951,2.4047,2.4141,2.4325,2.4381,2.4392,2.465,2.4756,2.4911,2.4927,2.4986,2.5016,2.5005,2.5078,2.5083,2.5088,2.5112,2.5121,2.5028,2.5029,2.5029,2.5029,0,2.3474,2.3589,2.3646,2.3824,2.3915,2.4016,2.415,2.4227,2.4294,2.4389,2.4528,2.466,2.4808,2.485,2.4916,2.5016,2.502,2.5052,2.5071,2.5087,2.5112,2.5122,2.5023,2.5024,2.5025,2.5026,0,0,2.3427,2.3673,2.3692,2.3775,2.3956,2.4047,2.4154,2.4301,2.4365,2.449,2.4584,2.4754,2.4787,2.4876,2.4955,2.5016,2.5059,2.5043,2.5048,2.5042,2.518,2.5154,2.5163,2.5099,2.5101,2.5103,2.5168,0,2.3472,2.3669,2.378,2.3932,2.4041,2.4144,2.4237,2.4358,2.445,2.4556,2.4658,2.4777,2.481,2.4865,2.493,2.504,2.5089,2.5037,2.5188,2.5192,2.5149,2.5176,2.5148,2.5203,2.5178,2.518,2.5181,0,2.3549,2.3675,2.3838,2.401,2.4059,2.4141,2.4287,2.4386,2.4526,2.4589,2.469,2.4769,2.4888,2.4897,2.5063,2.5025,2.5094,2.5157,2.5162,2.5181,2.5187,2.5196,2.5223,2.5231,2.5197,2.5196,2.5195,0,2.3501,2.3711,2.3836,2.3905,2.4107,2.4163,2.425,2.439,2.4472,2.4599,2.4654,2.4791,2.4867,2.4972,2.5087,2.5083,2.5243,2.5261,2.5299,2.5296,2.5327,2.5324,2.5367,2.537,2.537,2.537,2.5369,0,2.3539,2.3635,2.3818,2.3895,2.4006,2.4133,2.424,2.4335,2.4459,2.4557,2.4654,2.4744,2.489,2.4998,2.5089,2.5214,2.5247,2.5301,2.5324,2.5293,2.5286,2.534,2.5339,2.5372,2.5372,2.5371,2.5371,0,2.3504,2.363,2.3774,2.3955,2.4003,2.4077,2.4233,2.4312,2.441,2.4533,2.4569,2.4722,2.4855,2.4981,2.5158,2.5219,2.5344,2.5374,2.5297,2.531,2.5341,2.5337,2.5421,2.5439,2.5428,2.5428,2.5428,0,2.352,2.3597,2.3787,2.3861,2.3946,2.4063,2.4148,2.4277,2.4361,2.4529,2.4588,2.4729,2.4848,2.5055,2.5183,2.5319,2.5354,2.5374,2.5375,2.5342,2.5356,2.535,2.5359,2.5371,2.537,2.537,2.537,0,2.3536,2.3596,2.3715,2.3858,2.3957,2.4075,2.4196,2.425,2.4402,2.4493,2.4631,2.4723,2.4906,2.5044,2.5196,2.5286,2.5354,2.5369,2.5385,2.5354,2.5307,2.5334,2.5291,2.5366,2.5366,2.5367,2.5367,2.5367,2.3529,2.3603,2.3749,2.388,2.3985,2.4097,2.4181,2.4291,2.4409,2.4568,2.4637,2.4777,2.4919,2.513,2.5219,2.5331,2.5346,2.5369,2.5375,2.5379,2.5373,2.5289,2.5359,2.5359,2.5359,2.536,2.536,0,2.3551,2.3651,2.3771,2.3938,2.4042,2.4098,2.4236,2.4318,2.444,2.4567,2.4683,2.4843,2.4979,2.5118,2.5262,2.5325,2.536,2.5358,2.5355,2.5375,2.5351,2.5323,2.5328,2.5328,2.5328,2.5328,2.5328,2.5328,2.3575,2.3704,2.3782,2.3965,2.4065,2.4203,2.4278,2.4382,2.4484,2.4658,2.4772,2.4863,2.4996,2.515,2.5278,2.5316,2.5365,2.5355,2.5401,2.5375,2.5377,2.5378,2.5353,2.5364,2.5364,2.5417,2.5417,2.5417]}]]